This demonstration page uses our WeatherBlox Daily Observations layout. Learn more.

Left ArrowRight Arrow

39.29038, -76.61219

Hourly Observations for July 5, 2021

Temp ( °F °C ) Dew Point ( °F °C ) Humidity (%) Winds ( mph kmh ) Pressure ( in mb ) Visibility ( mi km ) Precip ( " mm )
12:54 am 00:54 Mostly Clear 69 20.6 64 17.8 84 84 N N/A 29.98 1015 7 11 N/A
1:54 am 01:54 Mostly Clear 67 19.4 64 17.8 91 91 N N/A 29.97 1015 7 11 N/A
2:54 am 02:54 Mostly Clear 66 18.9 62 16.7 87 87 N N/A 29.98 1015 7 11 N/A
3:54 am 03:54 Mostly Clear with Mist and Fog 66 18.9 62 16.7 87 87 N N/A 29.98 1015 6 10 N/A
4:54 am 04:54 Mostly Clear with Mist and Fog 65 18.3 62 16.7 90 90 N N/A 29.98 1015 6 10 N/A
5:54 am 05:54 Partly Cloudy with Mist and Fog 64 17.8 61 16.1 90 90 N N/A 29.98 1015 5 8 N/A
6:54 am 06:54 Hazy 68 20 63 17.2 84 84 N N/A 30.01 1016 6 10 N/A
7:54 am 07:54 Cloudy with Haze 74 23.3 66 18.9 76 76 N N/A 30.03 1017 5 8 N/A
8:54 am 08:54 Cloudy 79 26.1 67 19.4 67 67 SSE 3 6 30.04 1017 10 16 N/A
9:54 am 09:54 Cloudy 83 28.3 64 17.8 53 53 SSE 6 9 30.04 1017 10 16 N/A
10:54 am 10:54 Mostly Cloudy 85 29.4 63 17.2 48 48 SSW 6 9 30.05 1018 10 16 N/A
11:54 am 11:54 Mostly Cloudy 87 30.6 63 17.2 45 45 SSW 7 11 30.05 1018 10 16 N/A
12:54 pm 12:54 Mostly Cloudy 88 31.1 64 17.8 45 45 SSE 6 9 30.05 1018 10 16 N/A
1:54 pm 13:54 Mostly Cloudy 89 31.7 65 18.3 45 45 S 7 11 30.03 1017 10 16 N/A
2:54 pm 14:54 Mostly Cloudy 88 31.1 66 18.9 48 48 SSE 7 11 30.02 1017 10 16 N/A
3:54 pm 15:54 Partly Cloudy 89 31.7 63 17.2 42 42 SSE 9 15 30.01 1016 10 16 N/A
4:54 pm 16:54 Partly Cloudy 90 32.2 64 17.8 42 42 SSW 7 11 30.01 1016 10 16 N/A
5:54 pm 17:54 Partly Cloudy 89 31.7 64 17.8 43 43 SSW 7 11 30.01 1016 10 16 N/A
6:54 pm 18:54 Partly Cloudy 86 30 69 20.6 57 57 SSE 7 11 30.01 1016 10 16 N/A
7:54 pm 19:54 Partly Cloudy 84 28.9 69 20.6 61 61 SE 6 9 30.01 1016 10 16 N/A
8:54 pm 20:54 Mostly Clear 81 27.2 69 20.6 67 67 SSE 6 9 30.02 1017 10 16 N/A
9:54 pm 21:54 Mostly Clear 79 26.1 68 20 69 69 S 5 7 30.04 1017 10 16 N/A
10:54 pm 22:54 Clear 78 25.6 68 20 71 71 SSW 5 7 30.05 1018 10 16 N/A
11:54 pm 23:54 Clear 77 25 67 19.4 71 71 SSW 5 7 30.05 1018 10 16 N/A

Powered by AerisWeather